EW5349 Weather Reports


time (UTC)temp
C
wind
direction
speed
KPH
gust
KPH
rain 1hr
cm
rain 24hr
cm
rain mn
cm
humidity
%
barometer
mb
20260507010055 17 39 0.0 4.8 0.00 0.03 0.03 82 1010.9
20260507004547 17 44 0.0 1.6 0.00 0.03 0.03 82 1010.6
20260507003042 17 302 0.0 4.8 0.00 0.03 0.03 81 1010.4
20260507001542 17 50 0.0 0.0 0.00 0.03 0.03 82 1010.5
20260507000040 17 41 0.0 0.0 0.00 0.03 0.03 81 1010.2
20260506234539 17 94 0.0 0.0 0.00 0.03 0.03 81 1010.1
20260506233054 18 46 0.0 3.2 0.00 0.03 0.03 80 1010.0
20260506231539 18 39 0.0 0.0 0.00 0.03 0.03 78 1009.8
20260506230035 18 48 0.0 1.6 0.00 0.03 0.03 78 1009.9
20260506224534 18 45 0.0 4.8 0.00 0.03 0.03 78 1009.8
20260506223029 19 39 0.0 6.4 0.00 0.03 0.03 76 1009.7
20260506221528 20 12 0.0 3.2 0.00 0.03 0.03 74 1009.5
20260506220030 21 26 0.0 9.7 0.00 0.03 0.03 72 1009.5
20260506214529 21 303 0.0 4.8 0.00 0.03 0.03 72 1009.4
20260506213027 22 37 0.0 4.8 0.00 0.03 0.03 70 1009.1
20260506211528 23 52 0.0 6.4 0.00 0.03 0.03 70 1009.1
20260506210032 23 29 0.0 4.8 0.00 0.03 0.03 70 1009.0
20260506204524 23 258 0.0 4.8 0.00 0.03 0.03 72 1009.2
20260506203023 23 354 1.6 12.9 0.00 0.03 0.03 72 1009.4
20260506201525 23 81 0.0 4.8 0.00 0.03 0.03 75 1009.4
20260506200035 23 70 0.0 1.6 0.00 0.03 0.03 74 1009.1
20260506194522 26 41 0.0 3.2 0.00 0.03 0.03 71 1008.7
20260506193022 27 43 0.0 1.6 0.00 0.03 0.03 70 1008.7
20260506191518 27 338 0.0 1.6 0.00 0.03 0.03 73 1008.8
20260506190017 26 35 0.0 1.6 0.00 0.03 0.03 74 1009.1
20260506184513 26 246 0.0 1.6 0.00 0.03 0.03 73 1009.0
20260506183010 25 52 0.0 1.6 0.00 0.03 0.03 75 1009.0
20260506181513 25 6 0.0 0.0 0.00 0.03 0.03 77 1009.2
20260506180013 23 76 0.0 0.0 0.00 0.03 0.03 79 1009.0
20260506174601 23 348 0.0 1.6 0.00 0.03 0.03 81 1009.2
20260506173112 22 49 0.0 0.0 0.00 0.03 0.03 84 1009.3
20260506171610 21 239 0.0 1.6 0.00 0.03 0.03 86 1009.4
20260506170108 21 243 0.0 0.0 0.00 0.03 0.03 90 1009.4
20260506164623 19 34 0.0 0.0 0.00 0.03 0.03 94 1009.6
20260506163102 20 38 0.0 4.8 0.00 0.03 0.03 90 1010.2
20260506161553 21 69 0.0 4.8 0.03 0.03 0.03 88 1010.4
20260506160104 23 18 0.0 0.0 0.03 0.03 0.03 95 1009.6
20260506154552 23 18 0.0 0.0 0.03 0.03 0.03 94 1009.6
20260506153045 23 18 0.0 0.0 0.03 0.03 0.03 93 1009.2
20260506151543 24 18 0.0 0.0 0.00 0.00 0.00 92 1008.9
20260506150040 24 18 0.0 0.0 0.00 0.00 0.00 92 1008.5
20260506144539 24 22 0.0 0.0 0.00 0.00 0.00 92 1008.2
20260506143039 23 298 0.0 0.0 0.00 0.00 0.00 92 1007.9
20260506141552 23 160 0.0 0.0 0.00 0.00 0.00 92 1007.9
20260506140040 23 160 0.0 0.0 0.00 0.00 0.00 93 1008.1
20260506134533 23 160 0.0 0.0 0.00 0.00 0.00 93 1007.2
20260506133032 23 152 0.0 0.0 0.00 0.00 0.00 94 1007.2
20260506131535 23 234 0.0 0.0 0.00 0.00 0.00 94 1007.3
20260506130030 23 195 0.0 0.0 0.00 0.00 0.00 94 1007.1
20260506124531 23 123 0.0 0.0 0.00 0.00 0.00 95 1007.0
20260506123038 23 126 0.0 0.0 0.00 0.00 0.00 94 1007.0
20260506121527 23 126 0.0 0.0 0.00 0.00 0.00 94 1007.1
20260506120036 23 126 0.0 0.0 0.00 0.00 0.00 94 1006.9
20260506114526 23 92 0.0 0.0 0.00 0.00 0.00 94 1006.9
20260506113026 23 92 0.0 0.0 0.00 0.00 0.00 94 1006.8
20260506111524 23 92 0.0 0.0 0.00 0.00 0.00 94 1006.9
20260506110025 23 92 0.0 0.0 0.00 0.00 0.00 94 1006.7
20260506104519 23 92 0.0 0.0 0.00 0.00 0.00 94 1006.5
20260506103026 23 92 0.0 0.0 0.00 0.00 0.00 94 1006.3
20260506101520 23 88 0.0 0.0 0.00 0.00 0.00 94 1006.1
20260506100018 23 84 0.0 0.0 0.00 0.00 0.00 94 1006.0
20260506094529 23 153 0.0 0.0 0.00 0.00 0.00 94 1006.0
20260506093026 23 131 0.0 0.0 0.00 0.00 0.00 94 1005.8
20260506091515 23 351 0.0 0.0 0.00 0.00 0.00 94 1005.8
20260506090015 23 124 0.0 0.0 0.00 0.00 0.00 94 1005.7
20260506084513 23 121 0.0 1.6 0.00 0.00 0.00 93 1005.6
20260506083012 23 79 0.0 0.0 0.00 0.00 0.00 93 1005.6
20260506081510 23 122 0.0 0.0 0.00 0.00 0.00 92 1005.7
20260506073006 23 115 0.0 0.0 0.00 0.00 0.00 92 1006.1
20260506071507 23 84 0.0 3.2 0.00 0.00 0.00 92 1006.2
20260506061502 23 330 0.0 1.6 0.00 0.00 0.00 92 1006.4
20260506050105 23 219 0.0 1.6 0.00 0.00 0.00 90 1006.5
20260506044601 23 180 0.0 1.6 0.00 0.00 0.00 90 1006.3
20260506043054 24 333 0.0 0.0 0.00 0.00 0.00 90 1006.5
20260506041556 24 150 0.0 0.0 0.00 0.00 0.00 90 1006.2
20260506040053 24 122 0.0 0.0 0.00 0.00 0.00 90 1006.1
20260506034553 24 160 0.0 1.6 0.00 0.00 0.00 89 1006.0
20260506033052 24 129 0.0 0.0 0.00 0.00 0.00 90 1005.6
20260506031600 24 124 0.0 0.0 0.00 0.00 0.00 90 1005.5
20260506030109 24 314 0.0 1.6 0.00 0.00 0.00 89 1005.3
20260506024551 25 102 0.0 1.6 0.00 0.00 0.00 88 1005.2
20260506023050 25 231 0.0 1.6 0.00 0.00 0.00 88 1004.9
20260506021549 25 134 0.0 1.6 0.00 0.00 0.00 87 1004.3
20260506020049 25 205 0.0 0.0 0.00 0.00 0.00 86 1004.2
20260506014555 25 217 0.0 0.0 0.00 0.00 0.00 85 1004.1
20260506013050 25 84 0.0 0.0 0.00 0.00 0.00 84 1004.0
20260506011554 26 298 0.0 0.0 0.00 0.00 0.00 83 1004.2